DMSP 5D-2 F13 (USA 109)

Satellite information

Favourite Embed

Satellite Type and Status

PAYLOADIN ORBIT

Key statistics

Satellite DMSP 5D-2 F13 (USA 109) at a glance.

Uptime

11059

Days in orbit

Revolutions

≈ 14.2

Per day

Orbit

SSO

Sun Synchronous Orbit

Inclination

98.8

Latest

Satellite identification and parameters

Extended collection of information and parameters for DMSP 5D-2 F13 (USA 109).

Object identification

Identified? True

Debris? False

Object name: DMSP 5D-2 F13 (USA 109)

International designator: 1995-015A

Object number (NORAD): 23533

Object ID (CCSDS): 23533

Country: UNITED STATES OF AMERICA (US)

Current information (Y/N): Y

RCS size: LARGE

Orbital parameters

Period: 101.63 minutes

Inclination: 98.8129 deg

SMA: 7213.974 km

Apoapsis: 841.588 km

Periapsis: 830.089 km

RAAN: 196.0008 deg

Eccentricy: 0.000797

Argument of periapsis: 75.658 deg

Mean anomaly: 97.0839 deg

Mean motion: 14.16905665 rev/day

Mean motion (dot): 0.00000074 rev/day2

B* drag term: 0.000058631 1/REarth

Two-line elements (TLE)

Creation date: July 3, 2025, 3:40 a.m.

Reference frame: TEME

Reference center: EARTH

Epoch: July 2, 2025, 7:13 p.m. UTC

TLE line 0: 0 DMSP 5D-2 F13 (USA 109)

TLE line 1: 1 23533U 95015A 25183.80093486 .00000074 00000-0 58631-4 0 9991

TLE line 2: 2 23533 98.8129 196.0008 0007970 75.6580 97.0839 14.16905665563714

Live tracking on map

Real-time ground track for satellite DMSP 5D-2 F13 (USA 109).

In-orbit conjunctions

A list of the most updated potential collisions computed for object DMSP 5D-2 F13 (USA 109).

Target Orbit TCA Probability of collision Miss distance Type
CZ-6A DEB LEO 2025-04-19 11:22:38 0.0002441285 587.0 (m) DEBRIS
FENGYUN 1C DEB SSO 2024-11-05 20:13:34 0.0001703401 887.0 (m) DEBRIS
METEOR 2-5 DEB LEO 2024-10-03 13:47:31 0.0001043036 500.0 (m) DEBRIS

Associated space launch

Military meteorological satellite

DMSP 5D-2 F13 (USA 109) was lifted into orbit during the mission ‘Atlas E | DMSP-5D2 F13’, on board a Atlas E space rocket.

The launch took place on March 24, 1995, 2:05 p.m. from Space Launch Complex 3W.

For more information about the launch, click the button.

Launch to space Atlas E | DMSP-5D2 F13
Atlas E | DMSP-5D2 F13

Agency: N/A

Status: Launch Successful

Launch date: March 24, 1995, 2:05 p.m. UTC

Rocket: Atlas E

Launch pad: Space Launch Complex 3W

Location: Vandenberg SFB, CA, USA

...

Latest news about this satellite

There are no fresh news available about this satellite. Check back as we update our databases every day.


Newsletter sign-up

Weekly statistics, charts and insights to help you stay on top of the space industry.